Language selection

My Weather Profile Weather Topics  | 

Atlantic - Labrador: Past 24 Hour Conditions

 

Makkovik Airport

08:00 PM AST 05 February 2023
Disclaimer

This table is a summary of hourly weather conditions for the past 24 hours.
Please note that these observations might not always be representative of weather conditions over their associated marine area.

Date / Time
(AST)
Wind(knots) Conditions Visibility(km) Pressure(kPa) Air tempC) Relative humidity(%) Dew pointC) Wind Chill
05 February 2023
20:00 WSW 16 N/A N/A 101.0 -23 74 -26 -36
19:00 WSW 14 gust 19 N/A N/A 100.9 -23 74 -26 -35
18:00 SW 13 gust 20 N/A N/A 100.8 -22 71 -26 -34
17:00 WSW 13 Mostly Cloudy 24 100.8 -21 67 -26 -33
16:00 SW 16 gust 21 Partly Cloudy 24 100.7 -21 65 -26 -34
15:00 SW 17 Partly Cloudy 24 100.7 -21 63 -26 -34
14:00 SW 14 gust 21 Mostly Cloudy 24 100.7 -22 62 -27 -34
13:00 WSW 16 gust 24 Mostly Cloudy 24 100.8 -23 62 -28 -37
12:00 SW 23 gust 30 Mostly Cloudy 24 100.8 -24 60 -30 -40
11:00 WSW 22 gust 29 Partly Cloudy 24 100.8 -25 61 -31 -42
10:00 WSW 22 gust 30 Drifting Snow 24 100.8 -26 60 -32 -43
9:00 SW 23 gust 31 Drifting Snow 24 100.8 -27 60 -33 -44
8:00 WSW 18 gust 23 Mainly Sunny 24 100.8 -28 61 -33 -43
7:00 SW 23 Mainly Clear 24 100.7 -27 62 -32 -44
6:00 WSW 20 gust 29 Partly Cloudy 24 100.6 -26 56 -32 -41
5:00 WSW 23 gust 28 N/A N/A 100.5 -25 56 -31 -40
4:00 WSW 18 gust 29 N/A N/A 100.4 -24 62 -29 -38
3:00 WSW 21 gust 26 N/A N/A 100.3 -23 63 -28 -37
2:00 W 16 gust 32 N/A N/A 100.1 -22 67 -26 -35
1:00 WSW 19 gust 25 N/A N/A 99.9 -19 70 -24 -33
0:00 WNW 26 gust 45 N/A N/A 99.7 -17 72 -21 -31
04 February 2023
23:00 WNW 28 gust 38 N/A N/A 99.6 -17 77 -20 -32
22:00 WNW 36 gust 46 N/A N/A 99.2 -16 80 -19 -32
21:00 NW 37 gust 50 N/A N/A 98.9 -14 86 -16 -28
20:00 N/A N/A N/A 98.6 -13 86 -15 *

Zoom-in to make a selection

Map of Atlantic - Labrador marine weather areas Kangiqsualujjuaq Airport Cape Kakkiviak Cape Kiglapait Cartwright Airport CFB Goose Bay Hopedale Mary's Harbour Nain Airport Makkovik Airport Saglek Tukialik Bay
Legend:
buoy Buoy
land station Land Station

Atlantic - Labrador Area

Another Region

What we are doing

Date modified: